Погода в Рутуле

Россия / Республика Дагестан     41°32′03″N   47°25′45″E
темп.,
°C
ветер,
м/с
пор.,
м/с
влажн.,
%
обл.,
%
осадки,
мм/ч
давл.,
гПа
погр.,
м
16 сентября, чт
чт1600:00+9з22720 0.0 101623
03:00+9з22600 0.0 101419
06:00+9з33540 0.0 101428
09:00+18з12340 0.0 1010801
12:00+21ююв15240 0.0 10072247
15:00+20вюв23310 0.0 10081416
18:00+11в11640 0.0 101216
21:00+8в11800 0.0 101513
17 сентября, пт
пт1700:00+6в11890 0.0 101714
03:00+5в119443 0.0 101787
06:00+5юв019143 0.0 1018133
09:00+11в22580 0.0 1015767
12:00+14вюв335234 0.9 10131287
15:00+13вюв336442 2.8 1013947
18:00+8ююв128891 1.4 1015109
21:00+8юз1289100 5.1 1016136
18 сентября, сб
сб1800:00+9зюз228191 1.3 101658
03:00+6з33861 1.3 101641
06:00+6з33841 0.0 101748
09:00+13зюз02552 0.0 1015974
12:00+15юв23517 1.1 10141353
15:00+14юв225649 3.1 10141106
18:00+8ю12889 1.6 101754
21:00+8з228368 1.7 101841
19 сентября, вс
вс1900:00+7з33861 0.0 101839
03:00+6з33860 0.0 101944
06:00+6з33835 0.0 101948
09:00+14з12524 0.0 1016825
12:00+16юв134428 0.1 10141671
15:00+16ююв134620 0.1 10141276
18:00+10ююз12746 0.1 101723
21:00+9з33718 0.1 101843
20 сентября, пн
пн2000:00+8з347562 0.0 101856
03:00+8з447472 0.0 101757
06:00+8з337083 0.0 101745
09:00+15з124278 0.0 1014791
12:00+19ю143111 0.1 10112454
15:00+17вюв13383 0.2 10111421
18:00+10ююв117212 0.1 101512
21:00+10з22695 0.1 101622